DELTA 2 R/B

Last updated on Sat Apr 13 2024 01:02:09 GMT+0100 (British Summer Time)

1 25876U 99041E 24103.44753503 .00001428 00000+0 27567-3 0 9996 2 25876 51.7612 194.6672 0518987 99.0957 266.9048 14.07948246264792
UTC large
Height (km)
Speed (km/s)
/
Latitude / Longitude
Inclination (degrees)
Orbital Period (minutes)
Azimuth
Elevation
Range (km)
Doppler Factor

Next 0 passes for location: London (51.5072 / 0.1276)

Sorry there are no passes over London.